Satellite-Ground Cal/Val Region Overpasses Predictions

Prediction of Satellite NPP Overpassing Cal/Val Region: PacNW

Region Location: (Latitude: 10.00, Longitude: 139.50) to (Latitude: 22.70, Longitude: 165.60).

Table of predicted overpasses for the next 14.0 days since TLE Epoch: 3/17/2024
Interval Starting Time Starting Location Ending Time Ending Location
1 03/17/2024 03:11:35 ( 10.05, 151.89) 03/17/2024 03:15:10 ( 22.67, 148.89)
2 03/17/2024 15:43:28 ( 22.64, 149.11) 03/17/2024 15:47:03 ( 10.02, 146.12)
3 03/18/2024 02:52:33 ( 10.01, 156.65) 03/18/2024 02:56:09 ( 22.69, 153.64)
4 03/18/2024 15:24:27 ( 22.68, 153.87) 03/18/2024 15:28:02 ( 10.06, 150.88)
5 03/19/2024 02:33:33 ( 10.03, 161.40) 03/19/2024 02:37:08 ( 22.65, 158.40)
6 03/19/2024 15:05:26 ( 22.66, 158.62) 03/19/2024 15:09:01 ( 10.04, 155.62)
7 03/20/2024 02:15:13 ( 12.46, 165.59) 03/20/2024 02:18:07 ( 22.68, 163.15)
8 03/20/2024 03:56:02 ( 10.06, 140.77) 03/20/2024 03:57:35 ( 15.52, 139.51)
9 03/20/2024 14:46:25 ( 22.69, 163.38) 03/20/2024 14:50:01 ( 10.01, 160.37)
10 03/21/2024 03:37:01 ( 10.02, 145.53) 03/21/2024 03:40:36 ( 22.64, 142.53)
11 03/21/2024 14:30:25 ( 12.05, 165.59) 03/21/2024 14:30:59 ( 10.05, 165.13)
12 03/21/2024 16:08:54 ( 22.67, 142.75) 03/21/2024 16:12:29 ( 10.05, 139.75)
13 03/22/2024 03:18:00 ( 10.05, 150.28) 03/22/2024 03:21:35 ( 22.67, 147.28)
14 03/22/2024 15:49:54 ( 22.64, 147.50) 03/22/2024 15:53:29 ( 10.02, 144.50)
15 03/23/2024 02:58:59 ( 10.01, 155.04) 03/23/2024 03:02:35 ( 22.69, 152.03)
16 03/23/2024 15:30:53 ( 22.67, 152.26) 03/23/2024 15:34:28 ( 10.05, 149.26)
17 03/24/2024 02:39:58 ( 10.04, 159.78) 03/24/2024 02:43:33 ( 22.66, 156.79)
18 03/24/2024 15:11:52 ( 22.65, 157.00) 03/24/2024 15:15:27 ( 10.02, 154.00)
19 03/25/2024 02:20:57 ( 10.01, 164.54) 03/25/2024 02:24:33 ( 22.69, 161.53)
20 03/25/2024 14:52:51 ( 22.68, 161.76) 03/25/2024 14:56:26 ( 10.05, 158.76)
21 03/26/2024 03:43:26 ( 10.04, 143.91) 03/26/2024 03:47:01 ( 22.66, 140.91)
22 03/26/2024 14:34:53 ( 18.95, 165.60) 03/26/2024 14:37:25 ( 10.02, 163.51)
23 03/26/2024 16:15:20 ( 22.64, 141.13) 03/26/2024 16:17:14 ( 15.95, 139.51)
24 03/27/2024 03:24:25 ( 10.01, 148.67) 03/27/2024 03:28:01 ( 22.70, 145.66)
25 03/27/2024 15:56:19 ( 22.67, 145.89) 03/27/2024 15:59:54 ( 10.05, 142.89)
26 03/28/2024 03:05:24 ( 10.05, 153.42) 03/28/2024 03:08:59 ( 22.67, 150.42)
27 03/28/2024 15:37:17 ( 22.69, 150.65) 03/28/2024 15:40:53 ( 10.01, 147.64)
28 03/29/2024 02:46:23 ( 10.02, 158.18) 03/29/2024 02:49:58 ( 22.64, 155.18)
29 03/29/2024 15:18:17 ( 22.66, 155.39) 03/29/2024 15:21:52 ( 10.04, 152.40)
30 03/30/2024 02:27:23 ( 10.06, 162.92) 03/30/2024 02:30:58 ( 22.68, 159.92)
31 03/30/2024 14:59:15 ( 22.68, 160.15) 03/30/2024 15:02:51 ( 10.00, 157.14)
